Wind_Speed
27 26 26 27 26 27 28 29 30 32 32 34 33 34 37 38 33 36 37 42 40 42
27 26 28 28 27 27 30 32 32 36 32 28 34 39 30 31 30 29 27 26 29 32
28 26 28 28 29 29 30 34 36 37 37 29 28 24 23 26 25 28 27 27 32 34
28 29 28 31 31 31 31 30 41 36 25 22 19 20 18 21 23 22 22 24 28 27
30 31 31 31 32 32 29 34 28 27 20 19 16 16 17 19 19 21 23 24 24 27
32 31 31 31 31 32 31 22 23 19 18 14 11 13 13 15 18 22 23 24 27 28
33 31 30 29 33 33 24 19 20 19 15 13 9 6 8 12 16 19 22 23 27 28
35 33 31 29 30 31 21 21 21 20 20 19 14 9 8 12 15 18 21 24 28 30
37 38 35 31 30 28 25 26 24 24 25 24 17 9 10 9 11 15 20 26 29 30
38 39 39 36 33 32 26 28 27 29 29 26 14 9 5 3 9 13 19 27 31 32
39 41 43 38 35 32 29 30 32 31 30 24 16 14 16 18 19 19 21 29 33 34
41 45 43 44 48 33 32 30 32 34 32 26 20 20 23 24 24 26 30 33 36 36
41 44 44 51 47 35 30 31 32 35 31 28 23 22 26 29 31 34 37 37 37 35
39 43 47 55 48 37 33 32 37 34 30 30 26 25 29 30 36 38 40 40 39 38
Wind_Direction
325 326 323 322 321 316 316 311 306 299 296 286 269 263 274 279 253 261 254 241 243 244
328 329 322 318 317 317 311 311 311 305 296 274 279 289 279 264 258 244 236 231 230 226
329 324 322 321 317 315 309 312 308 307 298 292 293 290 272 266 241 236 241 229 225 228
328 325 322 320 319 315 315 311 312 312 306 303 302 289 266 264 242 236 228 220 218 215
328 326 324 324 325 324 319 311 312 318 315 308 301 280 260 252 239 230 223 216 207 207
335 334 333 333 332 326 325 329 327 336 338 328 306 280 257 247 238 228 220 213 205 204
349 347 344 343 342 342 344 344 355 358 359 5 342 308 262 246 233 221 211 206 197 193
1 359 355 351 347 347 357 8 18 17 21 21 13 359 270 256 229 211 200 194 190 189
10 9 5 2 1 3 16 22 29 29 30 29 24 322 288 253 215 198 185 180 179 179
15 15 15 13 11 13 22 29 35 37 37 36 27 2 8 104 146 151 166 169 168 167
19 21 21 17 20 22 31 36 39 43 44 45 44 50 79 98 114 123 138 160 160 157
23 25 23 28 20 28 36 44 49 51 52 54 61 74 90 100 106 114 127 139 150 154
26 27 27 33 22 37 45 51 58 59 61 64 78 88 98 99 104 116 126 134 142 148
26 30 33 38 27 43 51 60 65 67 68 72 85 92 99 105 106 114 123 130 135 137
Height
1474 1470 1464 1458 1452 1446 1441 1435 1430 1425 1421 1416 1412 1408 1406 1404 1404 1406 1409 1413 1417 1422
1472 1467 1459 1452 1447 1441 1434 1428 1421 1414 1407 1403 1399 1395 1391 1390 1391 1393 1397 1402 1406 1412
1469 1462 1454 1447 1440 1434 1426 1420 1410 1403 1397 1392 1387 1382 1381 1380 1380 1383 1387 1392 1398 1404
1464 1456 1449 1441 1434 1426 1418 1410 1400 1393 1387 1382 1377 1373 1370 1371 1372 1375 1379 1384 1390 1397
1459 1451 1444 1436 1428 1419 1410 1400 1392 1385 1379 1373 1369 1366 1363 1364 1365 1368 1372 1378 1384 1391
1455 1446 1438 1430 1422 1412 1401 1394 1388 1381 1373 1368 1363 1360 1358 1359 1359 1362 1367 1373 1380 1387
1452 1443 1434 1427 1418 1407 1397 1391 1384 1377 1370 1364 1358 1355 1353 1353 1354 1356 1361 1368 1376 1383
1452 1443 1433 1424 1414 1404 1396 1389 1381 1374 1367 1361 1356 1351 1349 1348 1349 1351 1357 1365 1373 1381
1453 1443 1433 1422 1412 1403 1394 1387 1380 1372 1365 1359 1354 1349 1346 1345 1346 1348 1355 1362 1371 1381
1456 1445 1433 1422 1412 1403 1394 1387 1379 1372 1365 1359 1353 1348 1345 1344 1346 1349 1355 1363 1372 1381
1460 1448 1437 1426 1414 1404 1395 1387 1382 1375 1367 1361 1356 1352 1350 1350 1352 1354 1358 1365 1375 1384
1464 1452 1443 1428 1416 1406 1398 1391 1385 1380 1373 1367 1363 1360 1359 1359 1359 1361 1365 1373 1382 1390
1470 1460 1449 1432 1422 1412 1403 1397 1392 1386 1380 1375 1372 1371 1369 1369 1368 1369 1374 1382 1390 1398
1478 1468 1456 1439 1429 1418 1409 1403 1399 1393 1388 1384 1382 1382 1381 1380 1378 1379 1383 1390 1397 1405